Terminal Aerodrome Forecast
Issued by NWS

Home | Current Version | Previous Version | Text Only | Print | Product List | Glossary On
Versions: 1 2 3 4 5 6 7 8 9 10 11 12
000
FTUS46 KLOX 280500
TAFLGB
TAF
KLGB 280535Z 2806/2906 VRB03KT P6SM SKC
     FM281100 VRB03KT 3SM BR OVC005
     FM281600 VRB03KT 5SM HZ SCT008
     FM281800 18006KT P6SM SCT250
     FM282300 29010KT P6SM SCT250
     FM290400 VRB03KT P6SM SCT250=

USA.gov is the U.S. government's official web portal to all federal, state and local government web resources and services.